Regional Weather Roundup
Issued by NWS Cleveland, OH

Home | Current Version | Previous Version | Text Only | Print | Product List | Glossary Off
Versions: 1 2 3 4 5 6 7 8 9 10 11 12 13 14 15 16 17 18 19 20 21 22 23 24 25 26 27 28 29 30 31 32 33 34 35 36 37 38 39 40 41 42 43 44 45 46 47 48 49 50

000
ASUS41 KCLE 031712
RWRCLE
OHIO REGIONAL WEATHER ROUNDUP
NATIONAL WEATHER SERVICE WILMINGTON, OH
100 PM EDT TUE MAY 03 2016

NOTE: "FAIR" INDICATES FEW OR NO CLOUDS BELOW 12,000 FEET WITH NO
SIGNIFICANT WEATHER AND/OR OBSTRUCTIONS TO VISIBILITY.

OHZ001>008-015>018-024>027-034-035-043-044-031800-
   NORTHWEST OHIO

CITY           SKY/WX    TMP DP  RH WIND       PRES   REMARKS
DEFIANCE       CLOUDY    58  42  55 CALM      29.91F
FINDLAY        PTSUNNY   58  42  55 W6        29.90F
TOLEDO EXPRESS CLOUDY    58  41  53 NW5       29.90F
TOLEDO EXEC    CLOUDY    59  42  53 N3        29.90F
LIMA           CLOUDY    54  45  71 NW6       29.91F
$$

OHZ009>014-019>023-028>033-038-089-031800-
   NORTHEAST OHIO

CITY           SKY/WX    TMP DP  RH WIND       PRES   REMARKS
CLE-HOPKINS    FAIR      57  38  48 N8        29.91F
CLE-LAKEFRONT  FAIR      52  41  66 NW9       29.90F
CUY CO. ARPT   MOSUNNY   57  45  62 NW12      29.90F
LORAIN-ELYRIA  CLOUDY    54  38  54 N10       29.90F
ASHTABULA      FAIR      52  42  69 N7        29.89F
AKRON-CANTON   CLOUDY    58  42  55 N9        29.87F
WOOSTER        CLOUDY    55  44  66 N7        29.89F
MANSFIELD      CLOUDY    54  44  69 N8        29.90S
YOUNGSTOWN     PTSUNNY   52  42  69 NW10      29.87F
$$

OHZ042-051>053-060>062-070>072-077>081-031800-
  SOUTHWEST OHIO

CITY           SKY/WX    TMP DP  RH WIND       PRES   REMARKS
CINC-COVINGTON CLOUDY    54  52  93 N9        29.91S
CINC-LUNKEN    LGT RAIN  57  50  77 NW3       29.91F
HAMILTON       CLOUDY    56  49  77 N6        29.93S
DAYTON         CLOUDY    54  44  69 N9        29.92F
WRIGHT-PAT AFB CLOUDY    55  46  71 VRB1      29.91S
DAYTON GENERAL CLOUDY    55  44  66 VRB3      29.90F
WILMINGTON     CLOUDY    53  48  83 N7        29.90F
$$

OHZ036-037-039>041-045>050-054>059-063>069-073>076-082>088-031800-
  CENTRAL AND SOUTHEAST OHIO

CITY           SKY/WX    TMP DP  RH WIND       PRES   REMARKS
COLUMBUS       CLOUDY    57  45  64 VRB5      29.88F
OSU AIRPORT    CLOUDY    59  44  57 N7        29.88F
BOLTON FIELD   CLOUDY    57  46  67 CALM      29.89F
RICKENBACK AFB CLOUDY    57  44  63 NW3       29.88F
NEWARK         CLOUDY    59  43  55 NE6       29.87F
MARION         CLOUDY    56  45  66 N7        29.91F
LANCASTER      CLOUDY    57  46  66 CALM      29.89F
ZANESVILLE     CLOUDY    58  45  62 NW5       29.88F
NEW PHILLY     CLOUDY    58  42  55 VRB3      29.88F
$$




USA.gov is the U.S. government's official web portal to all federal, state and local government web resources and services.